Weather History for Redmond, OR

Change the Weather History Date:

Monday, January 30, 2012

  Actual Average Record
Temperature  
Mean Temperature 39 °F 34 °F  
Max Temperature 51 °F 44 °F 67 °F (1989)
Min Temperature 27 °F 24 °F -22 °F (1950)
Degree Days  
Heating Degree Days 26 31  
Month to date heating degree days 901 968  
Since 1 July heating degree days 3595 3808  
Cooling Degree Days 0 0  
Month to date cooling degree days 0 0  
Year to date cooling degree days 0 0  
Moisture  
Dew Point 27 °F    
Average Humidity 62    
Maximum Humidity 85    
Minimum Humidity 39    
Precipitation  
Precipitation 0.00 in 0.02 in 0.50 in (1963)
Month to date precipitation 1.51 0.94  
Year to date precipitation 1.51 0.94  
Sea Level Pressure  
Sea Level Pressure 30.05 in    
Wind  
Wind Speed 4 mph (SSE)    
Max Wind Speed 16 mph    
Max Gust Speed 23 mph    
Visibility 10 miles    
Events      
T = Trace of Precipitation, MM = Missing Value Source: NWS Daily Summary

Daily Weather History Graph

Daily Weather History Graph

Search for Another Location

Airport:

Trip Planner

Search our weather history database for the weather conditions in past years. The results will help you decide how hot, cold, wet, or windy it might be!

Date:

Astronomy

Jan. 30, 2012 Rise Set
Actual Time 7:25 AM PST 5:11 PM PST
Civil Twilight 6:54 AM PST 5:42 PM PST
Nautical Twilight 6:19 AM PST 6:16 PM PST
Astronomical Twilight 5:45 AM PST 6:51 PM PST
Moon 10:31 AM PST (1/30) 12:18 AM PST (1/30)
Length of Visible Light 10h 47m
Length of Day
9h 45m
Waxing Crescent, 47% of the Moon is Illuminated
Jan 30
Waxing Crescent
Jan 30
First Quarter
Feb 7
Full
Feb 14
Last Quarter
Feb 21
New

Hourly Weather History & Observations

Time (PST) Temp. Windchill Dew Point Humidity Pressure Visibility Wind Dir Wind Speed Gust Speed Precip Events Conditions
12:56 AM 41.0 °F 33.5 °F 30.0 °F 65% 29.96 in 10.0 mi West 13.8 mph 19.6 mph N/A   Clear
1:56 AM 37.9 °F 35.5 °F 30.0 °F 73% 30.00 in 10.0 mi NNE 3.5 mph - N/A   Clear
2:56 AM 32.0 °F 24.2 °F 28.0 °F 85% 30.01 in 10.0 mi SSE 9.2 mph - N/A   Clear
4:56 AM 35.1 °F 30.1 °F 28.9 °F 78% 30.03 in 10.0 mi SW 5.8 mph - N/A   Clear
5:56 AM 36.0 °F 33.3 °F 28.0 °F 73% 30.05 in 10.0 mi Variable 3.5 mph - N/A   Clear
6:56 AM 35.1 °F - 28.0 °F 76% 30.09 in 10.0 mi Calm Calm - N/A   Mostly Cloudy
7:56 AM 30.0 °F 24.1 °F 27.0 °F 88% 30.10 in 10.0 mi South 5.8 mph - N/A   Scattered Clouds
8:56 AM 37.0 °F - 28.9 °F 73% 30.09 in 10.0 mi Calm Calm - N/A   Clear
9:56 AM 42.1 °F - 30.0 °F 62% 30.10 in 10.0 mi Calm Calm - N/A   Clear
10:56 AM 45.0 °F - 28.0 °F 52% 30.10 in 10.0 mi Calm Calm - N/A   Clear
11:56 AM 46.9 °F - 27.0 °F 46% 30.08 in 10.0 mi Variable 4.6 mph - N/A   Clear
12:56 PM 48.0 °F - 27.0 °F 44% 30.05 in 10.0 mi Calm Calm - N/A   Clear
1:56 PM 48.2 °F - 24.8 °F 40% 30.02 in 10.0 mi ESE 3.5 mph - N/A   Clear
2:56 PM 48.9 °F - 25.0 °F 39% 30.05 in 10.0 mi Calm Calm - N/A   Clear
3:56 PM 48.0 °F - 26.1 °F 42% 30.04 in 10.0 mi Calm Calm - N/A   Partly Cloudy
4:56 PM 45.0 °F - 27.0 °F 49% 30.04 in 10.0 mi Calm Calm - N/A   Clear
5:56 PM 36.0 °F - 27.0 °F 70% 30.06 in 10.0 mi Calm Calm - N/A   Clear
6:56 PM 33.1 °F 30.0 °F 26.1 °F 75% 30.07 in 10.0 mi SE 3.5 mph - N/A   Clear
7:56 PM 35.1 °F 29.3 °F 27.0 °F 72% 30.07 in 10.0 mi South 6.9 mph - N/A   Clear
8:56 PM 32.0 °F 28.7 °F 25.0 °F 75% 30.06 in 10.0 mi SE 3.5 mph - N/A   Clear
9:56 PM 33.1 °F 28.7 °F 27.0 °F 78% 30.05 in 10.0 mi SSE 4.6 mph - N/A   Clear
10:56 PM 30.0 °F 24.1 °F 25.0 °F 82% 30.04 in 10.0 mi South 5.8 mph - N/A   Clear
11:56 PM 33.1 °F 28.7 °F 26.1 °F 75% 30.03 in 10.0 mi SSE 4.6 mph - N/A   Clear